Weather in Velikie Borki

Ukraine / Ternopil District     49°31′14″N   25°45′15″E
temp.,
°C
wind,
m/s
gust,
m/s
humid.,
%
clouds,
%
prec.,
mm/h
press.,
hPa
HPBL,
m
26 july, mon
mon2600:00+17se367997 0.0 101880
03:00+18se41072100 0.0 1017217
06:00+17se4117220 0.0 1017238
09:00+18se487553 0.0 1017279
12:00+23sse4566100 0.0 1017502
15:00+24se596697 0.0 1017611
18:00+25se6116199 0.0 1016693
21:00+19se5148613 1.7 1017291
27 july, tue
tue2700:00+18sse413874 2.3 1017243
03:00+17sse4138821 2.9 1016238
06:00+16sse3892100 0.4 1016140
09:00+21s468273 0.9 1016195
12:00+26ssw346488 0.0 1016445
15:00+28sse455726 0.0 1015590
18:00+27s566891 0.9 1015608
21:00+22sse5108464 2.0 1015219
28 july, wed
wed2800:00+20sse4128295 0.0 1015192
03:00+18wnw36950 0.3 1015117
06:00+18nw349561 0.0 101580
09:00+22nw23825 0.0 1016313
12:00+26nne21645 0.0 1015772
15:00+29sse115576 0.0 10141108
18:00+29s12571 0.1 10131177
21:00+24ese117685 0.8 101325
29 july, thu
thu2900:00+19sse41287100 2.4 1013201
03:00+19ssw368895 2.4 101295
06:00+18wsw47866 0.0 1011110
09:00+22nw69810 0.0 1012476
12:00+24nw787223 0.0 1014976
15:00+24nw667023 0.0 10141044
18:00+24nw567399 0.0 10141071
21:00+20wnw33860 0.0 101433
30 july, fri
fri3000:00+18wnw11885 0.0 101511
03:00+17wsw11870 0.0 101511
06:00+17ssw11880 0.0 101411
09:00+22sse35730 0.0 1014318
12:00+25sse55590 0.0 1012871
15:00+28s56525 0.0 10111166
18:00+27sse58610 0.0 1008727
21:00+22se41177100 0.0 1008226